Location: Unspecified
(0.0000°N, 0.0000°E)
Time: 18:51:23
(UTC+00:00)

Hubble Space Telescope - Pass Details

Date: 11 November 2025
Orbit: 482 x 485 km, 28.5° (Epoch: 06 November)

Event Time Altitude Azimuth Distance (km) Brightness Sun altitude
Exits shadow 04:06:56 20° 192° (SSW) 1,157 2.5 -23.1°
Maximum altitude 04:08:36 28° 150° (SSE) 929 2.4 -22.7°
Drops below altitude 10° 04:11:54 10° 90° (E) 1,648 4.3 -21.9°
Sets 04:14:18 0° 78° (ENE) 2,526 5.2 -21.3°
